,,PA_Meas_PMT16A,,PR_Meas_QMR101_102,,RH_Meas_QMH101,,SR_Meas_QMS101,,TA_Meas_QMH101,,GenWind,,GenWind,
time,status,PA,status,PR,status,RH,status,SR,status,TA,status,DirAvg,status,SpdAvg,
2013-04-21, 00:00:05,VALID,918.535,VALID,0,VALID,95.7958,VALID,0,VALID,21.5152,VALID,348,VALID,0,
2013-04-21, 00:01:05,VALID,918.551,VALID,0,VALID,95.7882,VALID,0,VALID,21.5363,VALID,348,VALID,0,
2013-04-21, 00:02:05,VALID,918.549,VALID,0,VALID,95.7958,VALID,0,VALID,21.5559,VALID,348,VALID,0,
2013-04-21, 00:03:05,VALID,918.558,VALID,0,VALID,95.7501,VALID,0,VALID,21.5559,VALID,348,VALID,0,
2013-04-21, 00:04:05,VALID,918.56,VALID,0,VALID,95.7577,VALID,0,VALID,21.5754,VALID,348,VALID,0,
2013-04-21, 00:05:05,VALID,918.567,VALID,0,VALID,95.773,VALID,0,VALID,21.5932,VALID,348,VALID,0,
2013-04-21, 00:06:05,VALID,918.558,VALID,0,VALID,95.7501,VALID,0,VALID,21.6339,VALID,348,VALID,0,
2013-04-21, 00:07:05,VALID,918.524,VALID,0,VALID,95.7349,VALID,0,VALID,21.6339,VALID,348,VALID,0,
2013-04-21, 00:08:05,VALID,918.509,VALID,0,VALID,95.6434,VALID,0,VALID,21.6534,VALID,348,VALID,0,
2013-04-21, 00:09:05,VALID,918.487,VALID,0,VALID,95.59,VALID,0,VALID,21.6534,VALID,348,VALID,0,
2013-04-21, 00:10:05,VALID,918.447,VALID,0,VALID,95.5824,VALID,0,VALID,21.6339,VALID,348,VALID,0,
2013-04-21, 00:11:05,VALID,918.421,VALID,0,VALID,95.5443,VALID,0,VALID,21.6339,VALID,348,VALID,0,
2013-04-21, 00:12:05,VALID,918.427,VALID,0,VALID,95.529,VALID,0,VALID,21.6144,VALID,348,VALID,0,
2013-04-21, 00:13:05,VALID,918.375,VALID,0,VALID,95.4452,VALID,0,VALID,21.616,VALID,348,VALID,0,
2013-04-21, 00:14:05,VALID,918.403,VALID,0,VALID,95.3766,VALID,0,VALID,21.5754,VALID,348,VALID,0,
2013-04-21, 00:15:05,VALID,918.343,VALID,0,VALID,95.3842,VALID,0,VALID,21.5754,VALID,348,VALID,0,
2013-04-21, 00:16:05,VALID,918.341,VALID,0,VALID,95.4147,VALID,0.107441,VALID,21.5737,VALID,348,VALID,0,
2013-04-21, 00:17:05,VALID,918.344,VALID,0,VALID,95.468,VALID,0,VALID,21.5932,VALID,349,VALID,0,
2013-04-21, 00:18:05,VALID,918.359,VALID,0,VALID,95.4985,VALID,0.107441,VALID,21.6128,VALID,349,VALID,0,
2013-04-21, 00:19:05,VALID,918.343,VALID,0,VALID,95.3842,VALID,0,VALID,21.6518,VALID,349,VALID,0,
2013-04-21, 00:20:05,VALID,918.341,VALID,0,VALID,95.2698,VALID,0,VALID,21.6729,VALID,349,VALID,0,
2013-04-21, 00:21:05,VALID,918.292,VALID,0,VALID,95.0488,VALID,0.107441,VALID,21.6323,VALID,349,VALID,0,
2013-04-21, 00:22:05,VALID,918.277,VALID,0,VALID,95.0183,VALID,0.107441,VALID,21.6323,VALID,349,VALID,0,
2013-04-21, 00:23:05,VALID,918.264,VALID,0,VALID,94.8048,VALID,0,VALID,21.6323,VALID,349,VALID,0,
2013-04-21, 00:24:05,VALID,918.225,VALID,0,VALID,94.7133,VALID,0,VALID,21.5932,VALID,349,VALID,0,
2013-04-21, 00:25:05,VALID,918.21,VALID,0,VALID,94.7209,VALID,0,VALID,21.5737,VALID,349,VALID,0,
2013-04-21, 00:26:05,VALID,918.175,VALID,0,VALID,94.6218,VALID,0.107441,VALID,21.5347,VALID,349,VALID,0,
2013-04-21, 00:27:05,VALID,918.14,VALID,0,VALID,94.7438,VALID,0,VALID,21.5152,VALID,349,VALID,0,
2013-04-21, 00:28:05,VALID,918.126,VALID,0,VALID,94.7438,VALID,0,VALID,21.4957,VALID,337,VALID,0,
2013-04-21, 00:29:05,VALID,918.101,VALID,0,VALID,94.7896,VALID,0,VALID,21.4957,VALID,337,VALID,0,
2013-04-21, 00:30:05,VALID,918.061,VALID,0,VALID,94.881,VALID,0.107441,VALID,21.4762,VALID,348,VALID,0,
2013-04-21, 00:31:05,VALID,918.019,VALID,0,VALID,94.8658,VALID,0,VALID,21.4583,VALID,335,VALID,0,
2013-04-21, 00:32:05,VALID,918.034,VALID,0,VALID,94.8429,VALID,0,VALID,21.4583,VALID,327,VALID,0,
2013-04-21, 00:33:05,VALID,917.993,VALID,0,VALID,94.8734,VALID,0,VALID,21.4388,VALID,335,VALID,0,
2013-04-21, 00:34:05,VALID,917.965,VALID,0,VALID,94.9801,VALID,0,VALID,21.4388,VALID,353,VALID,0,
2013-04-21, 00:35:05,VALID,917.92,VALID,0,VALID,94.942,VALID,0,VALID,21.4193,VALID,8,VALID,0,
2013-04-21, 00:36:05,VALID,917.904,VALID,0,VALID,94.9725,VALID,0,VALID,21.4404,VALID,337,VALID,0,
2013-04-21, 00:37:05,VALID,917.883,VALID,0,VALID,94.9801,VALID,0,VALID,21.3998,VALID,2,VALID,0,
2013-04-21, 00:38:05,VALID,917.883,VALID,0,VALID,94.9573,VALID,0,VALID,21.3803,VALID,7,VALID,0,
2013-04-21, 00:39:05,VALID,917.84,VALID,0,VALID,94.9801,VALID,0,VALID,21.3819,VALID,15,VALID,0,
2013-04-21, 00:40:05,VALID,917.82,VALID,0,VALID,94.9649,VALID,0,VALID,21.3217,VALID,353,VALID,0,
2013-04-21, 00:41:05,VALID,917.799,VALID,0,VALID,95.0335,VALID,0,VALID,21.2827,VALID,15,VALID,0,
2013-04-21, 00:42:05,VALID,917.791,VALID,0,VALID,95.1174,VALID,0,VALID,21.2632,VALID,26,VALID,0,
2013-04-21, 00:43:05,VALID,917.779,VALID,0,VALID,95.1479,VALID,0,VALID,21.2437,VALID,4,VALID,0,
2013-04-21, 00:44:05,VALID,917.735,VALID,0,VALID,95.0183,VALID,0,VALID,21.2047,VALID,358,VALID,0,
2013-04-21, 00:45:05,VALID,917.737,VALID,0,VALID,94.9725,VALID,0,VALID,21.1657,VALID,10,VALID,0,
2013-04-21, 00:46:05,VALID,917.701,VALID,0,VALID,95.0869,VALID,0,VALID,21.1657,VALID,26,VALID,0,
2013-04-21, 00:47:05,VALID,917.691,VALID,0,VALID,94.9954,VALID,0,VALID,21.1461,VALID,5,VALID,0,
2013-04-21, 00:48:05,VALID,917.639,VALID,0,VALID,94.9954,VALID,0,VALID,21.1461,VALID,343,VALID,0,
2013-04-21, 00:49:05,VALID,917.594,VALID,0,VALID,94.9268,VALID,0,VALID,21.1266,VALID,343,VALID,0,
2013-04-21, 00:50:05,VALID,917.563,VALID,0,VALID,94.942,VALID,0,VALID,21.1071,VALID,343,VALID,0,
2013-04-21, 00:51:05,VALID,917.529,VALID,0,VALID,94.9954,VALID,0,VALID,21.1282,VALID,343,VALID,0,
2013-04-21, 00:52:05,VALID,917.487,VALID,0,VALID,94.9039,VALID,0,VALID,21.1282,VALID,343,VALID,0,
2013-04-21, 00:53:05,VALID,917.43,VALID,0,VALID,94.7896,VALID,0,VALID,21.1266,VALID,343,VALID,0,
2013-04-21, 00:54:05,VALID,917.427,VALID,0,VALID,94.5761,VALID,0,VALID,21.0665,VALID,343,VALID,0,
2013-04-21, 00:55:05,VALID,917.418,VALID,0,VALID,94.4389,VALID,0,VALID,21.0876,VALID,343,VALID,0,
2013-04-21, 00:56:05,VALID,917.399,VALID,0,VALID,94.3855,VALID,0,VALID,21.0665,VALID,343,VALID,0,
2013-04-21, 00:57:05,VALID,917.375,VALID,0,VALID,94.3931,VALID,0,VALID,21.047,VALID,343,VALID,0,
2013-04-21, 00:58:05,VALID,917.364,VALID,0,VALID,94.416,VALID,0,VALID,21.047,VALID,343,VALID,0,
2013-04-21, 00:59:05,VALID,917.349,VALID,0,VALID,94.5075,VALID,0,VALID,21.0486,VALID,343,VALID,0,
2013-04-21, 01:00:05,VALID,917.33,VALID,0,VALID,94.6218,VALID,0,VALID,21.0486,VALID,343,VALID,0,
2013-04-21, 01:01:05,VALID,917.31,VALID,0,VALID,94.5304,VALID,0,VALID,21.0681,VALID,343,VALID,0,
2013-04-21, 01:02:05,VALID,917.269,VALID,0,VALID,94.5151,VALID,0,VALID,21.0681,VALID,343,VALID,0,
2013-04-21, 01:03:05,VALID,917.238,VALID,0,VALID,94.4999,VALID,0,VALID,21.0681,VALID,343,VALID,0,
2013-04-21, 01:04:05,VALID,917.216,VALID,0,VALID,94.538,VALID,0,VALID,21.047,VALID,343,VALID,0,
2013-04-21, 01:05:05,VALID,917.213,VALID,0,VALID,94.4617,VALID,0,VALID,21.047,VALID,343,VALID,0,
2013-04-21, 01:06:05,VALID,917.217,VALID,0,VALID,94.4617,VALID,0,VALID,21.0665,VALID,343,VALID,0,
2013-04-21, 01:07:05,VALID,917.201,VALID,0,VALID,94.1568,VALID,0,VALID,21.0876,VALID,343,VALID,0,
2013-04-21, 01:08:05,VALID,917.175,VALID,0,VALID,93.9891,VALID,0,VALID,21.0665,VALID,343,VALID,0,
2013-04-21, 01:09:05,VALID,917.156,VALID,0,VALID,93.768,VALID,0,VALID,21.086,VALID,343,VALID,0,
2013-04-21, 01:10:05,VALID,917.12,VALID,0,VALID,93.5622,VALID,0,VALID,21.086,VALID,343,VALID,0,
2013-04-21, 01:11:05,VALID,917.107,VALID,0,VALID,93.6384,VALID,0,VALID,21.1055,VALID,343,VALID,0,
2013-04-21, 01:12:05,VALID,917.081,VALID,0,VALID,93.7451,VALID,0,VALID,21.086,VALID,343,VALID,0,
2013-04-21, 01:13:05,VALID,917.074,VALID,0,VALID,93.9434,VALID,0,VALID,21.1071,VALID,343,VALID,0,
2013-04-21, 01:14:05,VALID,917.081,VALID,0,VALID,94.1339,VALID,0,VALID,21.1055,VALID,343,VALID,0,
2013-04-21, 01:15:05,VALID,917.097,VALID,0,VALID,94.2407,VALID,0,VALID,21.125,VALID,343,VALID,0,
2013-04-21, 01:16:05,VALID,917.107,VALID,0,VALID,94.233,VALID,0,VALID,21.1461,VALID,343,VALID,0,
2013-04-21, 01:17:05,VALID,917.107,VALID,0,VALID,94.3169,VALID,0,VALID,21.1673,VALID,343,VALID,0,
2013-04-21, 01:18:05,VALID,917.119,VALID,0,VALID,94.3779,VALID,0,VALID,21.1461,VALID,343,VALID,0,
2013-04-21, 01:19:05,VALID,917.132,VALID,0,VALID,94.4465,VALID,0,VALID,21.1852,VALID,343,VALID,0,
2013-04-21, 01:20:05,VALID,917.113,VALID,0,VALID,94.3855,VALID,0,VALID,21.2258,VALID,343,VALID,0,
2013-04-21, 01:21:05,VALID,917.164,VALID,0,VALID,94.2788,VALID,0,VALID,21.2242,VALID,343,VALID,0,
2013-04-21, 01:22:05,VALID,917.12,VALID,0,VALID,94.2254,VALID,0,VALID,21.2242,VALID,343,VALID,0,
2013-04-21, 01:23:05,VALID,917.151,VALID,0,VALID,94.2026,VALID,0,VALID,21.2437,VALID,343,VALID,0,
2013-04-21, 01:24:05,VALID,917.18,VALID,0,VALID,94.1568,VALID,0,VALID,21.2632,VALID,343,VALID,0,
2013-04-21, 01:25:05,VALID,917.179,VALID,0,VALID,94.0501,VALID,0,VALID,21.3038,VALID,343,VALID,0,
2013-04-21, 01:26:05,VALID,917.169,VALID,0,VALID,93.9662,VALID,0,VALID,21.2632,VALID,343,VALID,0,
2013-04-21, 01:27:05,VALID,917.177,VALID,0,VALID,94.012,VALID,0,VALID,21.2632,VALID,343,VALID,0,
2013-04-21, 01:28:05,VALID,917.145,VALID,0,VALID,94.0653,VALID,0,VALID,21.2242,VALID,343,VALID,0,
2013-04-21, 01:29:05,VALID,917.182,VALID,0,VALID,94.1721,VALID,0,VALID,21.2258,VALID,343,VALID,0,
2013-04-21, 01:30:05,VALID,917.19,VALID,0,VALID,94.2788,VALID,0,VALID,21.2063,VALID,343,VALID,0,
2013-04-21, 01:31:05,VALID,917.228,VALID,0,VALID,94.3931,VALID,0.107441,VALID,21.1836,VALID,343,VALID,0,
2013-04-21, 01:32:05,VALID,917.214,VALID,0,VALID,94.4922,VALID,0.107441,VALID,21.1836,VALID,343,VALID,0,
2013-04-21, 01:33:05,VALID,917.204,VALID,0,VALID,94.5761,VALID,0,VALID,21.164,VALID,343,VALID,0,
2013-04-21, 01:34:05,VALID,917.222,VALID,0,VALID,94.6676,VALID,0,VALID,21.1852,VALID,343,VALID,0,
2013-04-21, 01:35:05,VALID,917.218,VALID,0,VALID,94.7667,VALID,0,VALID,21.164,VALID,343,VALID,0,
2013-04-21, 01:36:05,VALID,917.23,VALID,0,VALID,94.8505,VALID,0,VALID,21.1836,VALID,343,VALID,0,
2013-04-21, 01:37:05,VALID,917.178,VALID,0,VALID,94.9039,VALID,0.107441,VALID,21.164,VALID,343,VALID,0,
2013-04-21, 01:38:05,VALID,917.193,VALID,0,VALID,94.9649,VALID,0.107441,VALID,21.164,VALID,343,VALID,0,
2013-04-21, 01:39:05,VALID,917.173,VALID,0,VALID,95.0259,VALID,0,VALID,21.1836,VALID,343,VALID,0,
2013-04-21, 01:40:05,VALID,917.169,VALID,0,VALID,95.0259,VALID,0,VALID,21.1836,VALID,343,VALID,0,
2013-04-21, 01:41:05,VALID,917.152,VALID,0,VALID,95.0335,VALID,0,VALID,21.1852,VALID,343,VALID,0,
2013-04-21, 01:42:05,VALID,917.144,VALID,0,VALID,95.0183,VALID,0,VALID,21.1852,VALID,343,VALID,0,
2013-04-21, 01:43:05,VALID,917.143,VALID,0,VALID,95.0106,VALID,0,VALID,21.1852,VALID,343,VALID,0,
2013-04-21, 01:44:05,VALID,917.189,VALID,0,VALID,95.0869,VALID,0,VALID,21.1836,VALID,343,VALID,0,
2013-04-21, 01:45:05,VALID,917.162,VALID,0,VALID,95.1021,VALID,0,VALID,21.2242,VALID,343,VALID,0,
2013-04-21, 01:46:05,VALID,917.184,VALID,0,VALID,95.1479,VALID,0,VALID,21.2421,VALID,343,VALID,0,
2013-04-21, 01:47:05,VALID,917.151,VALID,0,VALID,94.9954,VALID,0,VALID,21.2632,VALID,343,VALID,0,
2013-04-21, 01:48:05,VALID,917.189,VALID,0,VALID,94.881,VALID,0,VALID,21.2632,VALID,343,VALID,0,
2013-04-21, 01:49:05,VALID,917.179,VALID,0,VALID,94.82,VALID,0,VALID,21.2047,VALID,343,VALID,0,
2013-04-21, 01:50:05,VALID,917.19,VALID,0,VALID,94.6981,VALID,0,VALID,21.1657,VALID,28,VALID,0,
2013-04-21, 01:51:05,VALID,917.183,VALID,0,VALID,94.6676,VALID,0,VALID,21.086,VALID,28,VALID,0,
2013-04-21, 01:52:05,VALID,917.208,VALID,0,VALID,94.7286,VALID,0,VALID,21.0681,VALID,28,VALID,0,
2013-04-21, 01:53:05,VALID,917.174,VALID,0,VALID,94.7819,VALID,0,VALID,21.0486,VALID,28,VALID,0,
2013-04-21, 01:54:05,VALID,917.189,VALID,0,VALID,94.8277,VALID,0.107441,VALID,21.0486,VALID,28,VALID,0,
2013-04-21, 01:55:05,VALID,917.148,VALID,0,VALID,94.7896,VALID,0,VALID,20.9885,VALID,28,VALID,0,
2013-04-21, 01:56:05,VALID,917.151,VALID,0,VALID,94.881,VALID,0,VALID,20.9901,VALID,28,VALID,0,
2013-04-21, 01:57:05,VALID,917.177,VALID,0,VALID,94.9801,VALID,0,VALID,21.0096,VALID,28,VALID,0,
2013-04-21, 01:58:05,VALID,917.15,VALID,0,VALID,94.9573,VALID,0,VALID,20.9901,VALID,27,VALID,0,
2013-04-21, 01:59:05,VALID,917.124,VALID,0,VALID,95.0106,VALID,0,VALID,20.9495,VALID,26,VALID,0,
2013-04-21, 02:00:05,VALID,917.087,VALID,0,VALID,95.1326,VALID,0,VALID,20.9495,VALID,3,VALID,0,
2013-04-21, 02:01:05,VALID,917.114,VALID,0,VALID,95.2546,VALID,0,VALID,20.9917,VALID,331,VALID,0,
2013-04-21, 02:02:05,VALID,917.108,VALID,0,VALID,95.3461,VALID,0,VALID,20.9901,VALID,337,VALID,0,
2013-04-21, 02:03:05,VALID,917.099,VALID,0,VALID,95.3384,VALID,0,VALID,21.0096,VALID,337,VALID,0,
2013-04-21, 02:04:05,VALID,917.088,VALID,0,VALID,95.3766,VALID,0,VALID,21.0307,VALID,337,VALID,0,
2013-04-21, 02:05:05,VALID,917.054,VALID,0,VALID,95.4071,VALID,0,VALID,21.0892,VALID,337,VALID,0,
2013-04-21, 02:06:05,VALID,917.073,VALID,0,VALID,95.3613,VALID,0,VALID,21.1282,VALID,337,VALID,0,
2013-04-21, 02:07:05,VALID,916.999,VALID,0,VALID,95.3613,VALID,0,VALID,21.1266,VALID,337,VALID,0,
2013-04-21, 02:08:05,VALID,916.96,VALID,0,VALID,95.3003,VALID,0,VALID,21.1673,VALID,337,VALID,0,
2013-04-21, 02:09:05,VALID,916.933,VALID,0,VALID,95.2393,VALID,0,VALID,21.1657,VALID,337,VALID,0,
2013-04-21, 02:10:05,VALID,916.899,VALID,0,VALID,95.2317,VALID,0,VALID,21.1461,VALID,337,VALID,0,
2013-04-21, 02:11:05,VALID,916.885,VALID,0,VALID,95.2088,VALID,0,VALID,21.1461,VALID,337,VALID,0,
2013-04-21, 02:12:05,VALID,916.859,VALID,0,VALID,95.2088,VALID,0,VALID,21.1461,VALID,337,VALID,0,
2013-04-21, 02:13:05,VALID,916.875,VALID,0,VALID,95.186,VALID,0,VALID,21.1657,VALID,337,VALID,0,
2013-04-21, 02:14:05,VALID,916.852,VALID,0,VALID,95.1402,VALID,0,VALID,21.1657,VALID,337,VALID,0,
2013-04-21, 02:15:05,VALID,916.821,VALID,0,VALID,95.0488,VALID,0,VALID,21.1657,VALID,337,VALID,0,
2013-04-21, 02:16:05,VALID,916.809,VALID,0,VALID,95.0716,VALID,0,VALID,21.1657,VALID,337,VALID,0,
2013-04-21, 02:17:05,VALID,916.794,VALID,0,VALID,95.1174,VALID,0,VALID,21.1657,VALID,337,VALID,0,
2013-04-21, 02:18:05,VALID,916.805,VALID,0,VALID,95.1021,VALID,0,VALID,21.1657,VALID,337,VALID,0,
2013-04-21, 02:19:05,VALID,916.782,VALID,0,VALID,95.1555,VALID,0,VALID,21.1852,VALID,337,VALID,0,
2013-04-21, 02:20:05,VALID,916.793,VALID,0,VALID,95.1707,VALID,0,VALID,21.164,VALID,337,VALID,0,
2013-04-21, 02:21:05,VALID,916.793,VALID,0,VALID,95.1326,VALID,0,VALID,21.2031,VALID,337,VALID,0,
2013-04-21, 02:22:05,VALID,916.794,VALID,0,VALID,95.125,VALID,0,VALID,21.2242,VALID,337,VALID,0,
2013-04-21, 02:23:05,VALID,916.774,VALID,0,VALID,95.1021,VALID,0.107441,VALID,21.2437,VALID,337,VALID,0,
2013-04-21, 02:24:05,VALID,916.767,VALID,0,VALID,95.0869,VALID,0,VALID,21.2421,VALID,337,VALID,0,
2013-04-21, 02:25:05,VALID,916.763,VALID,0,VALID,94.881,VALID,0,VALID,21.2421,VALID,337,VALID,0,
2013-04-21, 02:26:05,VALID,916.716,VALID,0,VALID,94.9039,VALID,0,VALID,21.2632,VALID,337,VALID,0,
2013-04-21, 02:27:05,VALID,916.705,VALID,0,VALID,94.8963,VALID,0,VALID,21.2226,VALID,337,VALID,0,
2013-04-21, 02:28:05,VALID,916.656,VALID,0,VALID,94.942,VALID,0.107441,VALID,21.2616,VALID,337,VALID,0,
2013-04-21, 02:29:05,VALID,916.63,VALID,0,VALID,94.7896,VALID,0,VALID,21.2421,VALID,337,VALID,0,
2013-04-21, 02:30:05,VALID,916.589,VALID,0,VALID,94.8658,VALID,0,VALID,21.2437,VALID,337,VALID,0,
2013-04-21, 02:31:05,VALID,916.542,VALID,0,VALID,94.9649,VALID,0.107441,VALID,21.2616,VALID,337,VALID,0,
2013-04-21, 02:32:05,VALID,916.541,VALID,0,VALID,94.9725,VALID,0,VALID,21.2811,VALID,337,VALID,0,
2013-04-21, 02:33:05,VALID,916.547,VALID,0,VALID,94.8048,VALID,0.107441,VALID,21.3201,VALID,337,VALID,0,
2013-04-21, 02:34:05,VALID,916.537,VALID,0,VALID,94.7057,VALID,0,VALID,21.3022,VALID,337,VALID,0,
2013-04-21, 02:35:05,VALID,916.512,VALID,0,VALID,94.7286,VALID,0,VALID,21.3217,VALID,337,VALID,0,
2013-04-21, 02:36:04,VALID,916.515,VALID,0,VALID,94.6981,VALID,0,VALID,21.3217,VALID,337,VALID,0,
2013-04-21, 02:37:04,VALID,916.514,VALID,0,VALID,94.8353,VALID,0.107441,VALID,21.3201,VALID,337,VALID,0,
2013-04-21, 02:38:04,VALID,916.478,VALID,0,VALID,94.66,VALID,0,VALID,21.3412,VALID,337,VALID,0,
2013-04-21, 02:39:04,VALID,916.454,VALID,0,VALID,94.6371,VALID,0,VALID,21.3217,VALID,337,VALID,0,
2013-04-21, 02:40:04,VALID,916.474,VALID,0,VALID,94.6523,VALID,0.107441,VALID,21.3006,VALID,4,VALID,0,
2013-04-21, 02:41:04,VALID,916.436,VALID,0,VALID,94.4999,VALID,0,VALID,21.2811,VALID,16,VALID,0,
2013-04-21, 02:42:04,VALID,916.437,VALID,0,VALID,94.4236,VALID,0,VALID,21.2226,VALID,15,VALID,0,
2013-04-21, 02:43:04,VALID,916.431,VALID,0,VALID,94.4694,VALID,0,VALID,21.164,VALID,15,VALID,0,
2013-04-21, 02:44:04,VALID,916.421,VALID,0,VALID,94.5913,VALID,0.107441,VALID,21.1266,VALID,15,VALID,0,
2013-04-21, 02:45:04,VALID,916.42,VALID,0,VALID,94.7209,VALID,0.107441,VALID,21.0665,VALID,15,VALID,0,
2013-04-21, 02:46:04,VALID,916.392,VALID,0,VALID,94.8582,VALID,0,VALID,21.0291,VALID,15,VALID,0,
2013-04-21, 02:47:04,VALID,916.427,VALID,0,VALID,95.0259,VALID,0,VALID,21.0291,VALID,15,VALID,0,
2013-04-21, 02:48:04,VALID,916.419,VALID,0,VALID,94.9954,VALID,0,VALID,20.969,VALID,15,VALID,0,
2013-04-21, 02:49:04,VALID,916.41,VALID,0,VALID,95.0411,VALID,0,VALID,20.9495,VALID,15,VALID,0,
2013-04-21, 02:50:04,VALID,916.422,VALID,0,VALID,95.0945,VALID,0,VALID,20.9511,VALID,15,VALID,0,
2013-04-21, 02:51:04,VALID,916.39,VALID,0,VALID,95.1555,VALID,0,VALID,20.9722,VALID,15,VALID,0,
2013-04-21, 02:52:04,VALID,916.406,VALID,0,VALID,95.1097,VALID,0,VALID,20.9316,VALID,15,VALID,0,
2013-04-21, 02:53:04,VALID,916.423,VALID,0,VALID,95.0945,VALID,0,VALID,20.912,VALID,15,VALID,0,
2013-04-21, 02:54:04,VALID,916.41,VALID,0,VALID,95.0945,VALID,0,VALID,20.9331,VALID,15,VALID,0,
2013-04-21, 02:55:04,VALID,916.43,VALID,0,VALID,95.0716,VALID,0,VALID,20.9136,VALID,15,VALID,0,
2013-04-21, 02:56:04,VALID,916.411,VALID,0,VALID,95.1097,VALID,0,VALID,20.873,VALID,15,VALID,0,
2013-04-21, 02:57:04,VALID,916.436,VALID,0,VALID,95.1174,VALID,0,VALID,20.8925,VALID,15,VALID,0,
2013-04-21, 02:58:04,VALID,916.418,VALID,0,VALID,95.1631,VALID,0,VALID,20.8925,VALID,15,VALID,0,
2013-04-21, 02:59:04,VALID,916.398,VALID,0,VALID,95.186,VALID,0,VALID,20.9136,VALID,15,VALID,0,
2013-04-21, 03:00:04,VALID,916.385,VALID,0,VALID,95.2165,VALID,0,VALID,20.9527,VALID,15,VALID,0,
2013-04-21, 03:01:04,VALID,916.38,VALID,0,VALID,95.0335,VALID,0,VALID,20.912,VALID,15,VALID,0,
2013-04-21, 03:02:04,VALID,916.358,VALID,0,VALID,95.0259,VALID,0,VALID,20.891,VALID,15,VALID,0,
2013-04-21, 03:03:04,VALID,916.407,VALID,0,VALID,94.8963,VALID,0,VALID,20.891,VALID,15,VALID,0,
2013-04-21, 03:04:04,VALID,916.416,VALID,0,VALID,94.7972,VALID,0,VALID,20.8925,VALID,15,VALID,0,
2013-04-21, 03:05:04,VALID,916.436,VALID,0,VALID,94.7057,VALID,0,VALID,20.8519,VALID,15,VALID,0,
2013-04-21, 03:06:04,VALID,916.393,VALID,0,VALID,94.599,VALID,0,VALID,20.8324,VALID,15,VALID,0,
2013-04-21, 03:07:04,VALID,916.354,VALID,0,VALID,94.5532,VALID,0,VALID,20.795,VALID,15,VALID,0,
2013-04-21, 03:08:04,VALID,916.311,VALID,0,VALID,94.6142,VALID,0.107441,VALID,20.7154,VALID,15,VALID,0,
2013-04-21, 03:09:04,VALID,916.311,VALID,0,VALID,94.6905,VALID,0.107441,VALID,20.6764,VALID,15,VALID,0,
2013-04-21, 03:10:04,VALID,916.268,VALID,0,VALID,94.8353,VALID,0,VALID,20.6569,VALID,15,VALID,0,
2013-04-21, 03:11:04,VALID,916.244,VALID,0,VALID,94.8124,VALID,0,VALID,20.639,VALID,15,VALID,0,
2013-04-21, 03:12:04,VALID,916.208,VALID,0,VALID,94.881,VALID,0,VALID,20.6194,VALID,15,VALID,0,
2013-04-21, 03:13:04,VALID,916.213,VALID,0,VALID,95.0106,VALID,0,VALID,20.5789,VALID,15,VALID,0,
2013-04-21, 03:14:04,VALID,916.14,VALID,0,VALID,95.2546,VALID,0.107441,VALID,20.5789,VALID,15,VALID,0,
2013-04-21, 03:15:04,VALID,916.102,VALID,0,VALID,95.3079,VALID,0,VALID,20.5984,VALID,15,VALID,0,
2013-04-21, 03:16:04,VALID,916.029,VALID,0,VALID,95.2622,VALID,0.107441,VALID,20.639,VALID,15,VALID,0,
2013-04-21, 03:17:04,VALID,916.014,VALID,0,VALID,95.2927,VALID,0.107441,VALID,20.6585,VALID,15,VALID,0,
2013-04-21, 03:18:04,VALID,915.968,VALID,0,VALID,95.2927,VALID,0,VALID,20.6569,VALID,354,VALID,0,
2013-04-21, 03:19:04,VALID,915.931,VALID,0,VALID,95.2698,VALID,0,VALID,20.6569,VALID,358,VALID,0,
2013-04-21, 03:20:04,VALID,915.901,VALID,0,VALID,95.2165,VALID,0,VALID,20.678,VALID,358,VALID,0,
2013-04-21, 03:21:04,VALID,915.892,VALID,0,VALID,95.186,VALID,0.107441,VALID,20.6975,VALID,358,VALID,0,
2013-04-21, 03:22:04,VALID,915.883,VALID,0,VALID,95.1326,VALID,0,VALID,20.678,VALID,358,VALID,0,
2013-04-21, 03:23:04,VALID,915.894,VALID,0,VALID,95.0945,VALID,0,VALID,20.678,VALID,358,VALID,0,
2013-04-21, 03:24:04,VALID,915.878,VALID,0,VALID,95.0183,VALID,0,VALID,20.6374,VALID,358,VALID,0,
2013-04-21, 03:25:04,VALID,915.857,VALID,0,VALID,94.9801,VALID,0,VALID,20.6194,VALID,358,VALID,0,
2013-04-21, 03:26:04,VALID,915.857,VALID,0,VALID,94.9878,VALID,0,VALID,20.5789,VALID,358,VALID,0,
2013-04-21, 03:27:04,VALID,915.824,VALID,0,VALID,94.9954,VALID,0,VALID,20.5609,VALID,358,VALID,0,
2013-04-21, 03:28:04,VALID,915.816,VALID,0,VALID,94.9878,VALID,0,VALID,20.5414,VALID,358,VALID,0,
2013-04-21, 03:29:04,VALID,915.804,VALID,0,VALID,94.9878,VALID,0,VALID,20.5009,VALID,358,VALID,0,
2013-04-21, 03:30:04,VALID,915.807,VALID,0,VALID,94.9801,VALID,0,VALID,20.5024,VALID,358,VALID,0,
2013-04-21, 03:31:04,VALID,915.814,VALID,0,VALID,94.9115,VALID,0,VALID,20.4634,VALID,358,VALID,0,
2013-04-21, 03:32:04,VALID,915.79,VALID,0,VALID,94.8734,VALID,0,VALID,20.4439,VALID,358,VALID,0,
2013-04-21, 03:33:04,VALID,915.801,VALID,0,VALID,94.8963,VALID,0,VALID,20.4049,VALID,358,VALID,0,
2013-04-21, 03:34:04,VALID,915.807,VALID,0,VALID,94.9344,VALID,0,VALID,20.4244,VALID,358,VALID,0,
2013-04-21, 03:35:04,VALID,915.799,VALID,0,VALID,94.9115,VALID,0,VALID,20.4049,VALID,358,VALID,0,
2013-04-21, 03:36:04,VALID,915.824,VALID,0,VALID,94.9192,VALID,0,VALID,20.3854,VALID,358,VALID,0,
2013-04-21, 03:37:04,VALID,915.822,VALID,0,VALID,95.0183,VALID,0,VALID,20.3854,VALID,291,VALID,0,
2013-04-21, 03:38:04,VALID,915.833,VALID,0,VALID,95.1555,VALID,0.107441,VALID,20.4049,VALID,291,VALID,0,
2013-04-21, 03:39:04,VALID,915.822,VALID,0,VALID,95.3537,VALID,0,VALID,20.4033,VALID,291,VALID,0,
2013-04-21, 03:40:04,VALID,915.828,VALID,0,VALID,95.529,VALID,0,VALID,20.4829,VALID,291,VALID,0,
2013-04-21, 03:41:04,VALID,915.85,VALID,0,VALID,95.4985,VALID,0,VALID,20.4829,VALID,291,VALID,0,
2013-04-21, 03:42:04,VALID,915.831,VALID,0,VALID,95.3537,VALID,0,VALID,20.4228,VALID,291,VALID,0,
2013-04-21, 03:43:04,VALID,915.827,VALID,0,VALID,95.3842,VALID,0,VALID,20.4244,VALID,291,VALID,0,
2013-04-21, 03:44:04,VALID,915.854,VALID,0,VALID,95.5138,VALID,0,VALID,20.4634,VALID,291,VALID,0,
2013-04-21, 03:45:04,VALID,915.858,VALID,0,VALID,95.6586,VALID,0,VALID,20.5024,VALID,291,VALID,0,
2013-04-21, 03:46:04,VALID,915.843,VALID,0,VALID,95.6662,VALID,0,VALID,20.5024,VALID,291,VALID,0,
2013-04-21, 03:47:04,VALID,915.857,VALID,0,VALID,95.6891,VALID,0,VALID,20.5219,VALID,291,VALID,0,
2013-04-21, 03:48:04,VALID,915.826,VALID,0,VALID,95.7349,VALID,0,VALID,20.5414,VALID,291,VALID,0,
2013-04-21, 03:49:04,VALID,915.834,VALID,0,VALID,95.7196,VALID,0,VALID,20.5204,VALID,291,VALID,0,
2013-04-21, 03:50:04,VALID,915.844,VALID,0,VALID,95.651,VALID,0,VALID,20.5235,VALID,291,VALID,0,
2013-04-21, 03:51:04,VALID,915.819,VALID,0,VALID,95.4985,VALID,0,VALID,20.4634,VALID,291,VALID,0,
2013-04-21, 03:52:04,VALID,915.836,VALID,0,VALID,95.4909,VALID,0,VALID,20.4244,VALID,291,VALID,0,
2013-04-21, 03:53:04,VALID,915.807,VALID,0,VALID,95.4071,VALID,0,VALID,20.4049,VALID,291,VALID,0,
2013-04-21, 03:54:04,VALID,915.809,VALID,0,VALID,95.3461,VALID,0,VALID,20.3854,VALID,291,VALID,0,
2013-04-21, 03:55:04,VALID,915.79,VALID,0,VALID,95.2851,VALID,0,VALID,20.3659,VALID,291,VALID,0,
2013-04-21, 03:56:04,VALID,915.781,VALID,0,VALID,95.2317,VALID,0,VALID,20.3269,VALID,291,VALID,0,
2013-04-21, 03:57:04,VALID,915.779,VALID,0,VALID,95.2622,VALID,0,VALID,20.2879,VALID,291,VALID,0,
2013-04-21, 03:58:04,VALID,915.804,VALID,0,VALID,95.2775,VALID,0,VALID,20.2699,VALID,113,VALID,0,
2013-04-21, 03:59:04,VALID,915.8,VALID,0,VALID,95.3613,VALID,0,VALID,20.2098,VALID,113,VALID,0,